Location: Alafon
(8.4500°N, 4.2333°E)
Time: 01:10:17
(UTC+00:00)

NOSS 3-1 (C) - Pass Details

Date: 05 July 2020
Orbit: 752 x 1456 km, 63.4° (Epoch: 15 June)

Event Time Altitude Azimuth Distance (km) Brightness Sun altitude
Rises 19:59:45 0° 338° (NNW) 4,340 7.6 -26.1°
Reaches altitude 10° 20:02:31 10° 339° (NNW) 3,433 7.0 -26.7°
Maximum altitude 20:11:11 82° 67° (ENE) 1,461 4.2 -28.5°
Enters shadow 20:13:32 55° 146° (SE) 1,699 4.3 -29.0°
